Bend, OR

7:45 AM PST on December 17, 2017 (GMT -0800)
Bend Municipal

Weather History for KBDN - January, 2014

Change the Weather History Date:

Friday, January 10, 2014

  Actual Average (KRDM) Record (KRDM)
Temperature  
Mean Temperature 42 °F -  
Max Temperature 46 °F 39 °F 67 °F (1999)
Min Temperature 37 °F 22 °F -6 °F (1974)
Degree Days  
Heating Degree Days 24    
Moisture  
Dew Point 29 °F    
Average Humidity 57    
Maximum Humidity 66    
Minimum Humidity 42    
Precipitation  
Precipitation 0.00 in - - ()
Sea Level Pressure  
Sea Level Pressure 30.05 in    
Wind  
Wind Speed 13 mph (SW)    
Max Wind Speed 23 mph    
Max Gust Speed 38 mph    
Visibility 10 miles    
Events      
Averages and records for this station are not official NWS values.
T = Trace of Precipitation, MM = Missing Value Source: NWS Daily Summary

Daily Weather History Graph

Daily Weather History Graph

Search for Another Location

Airport or City:

Trip Planner

Search our weather history database for the weather conditions in past years. The results will help you decide how hot, cold, wet, or windy it might be!

Date:

Astronomy

Jan. 10, 2014 Rise Set
Actual Time 7:38 AM PST 4:46 PM PST
Civil Twilight 7:06 AM PST 5:19 PM PST
Nautical Twilight 6:30 AM PST 5:55 PM PST
Astronomical Twilight 5:55 AM PST 6:29 PM PST
Moon 12:56 PM PST (1/10) 2:48 AM PST (1/10)
Length of Visible Light 10h 12m
Length of Day
9h 07m
Waxing Gibbous, 76% of the Moon is Illuminated
Jan 10
Waxing Gibbous
Jan 15
Full
Jan 23
Last Quarter
Jan 30
New
Feb 6
First Quarter

Hourly Weather History & Observations

Time (PST) Temp. Windchill Dew Point Humidity Pressure Visibility Wind Dir Wind Speed Gust Speed Precip Events Conditions
12:15 AM 42.8 °F 34.0 °F 32.0 °F 66% 29.96 in 10.0 mi SW 20.7 mph 31.1 mph N/A   Clear
12:35 AM 44.6 °F 37.4 °F 30.2 °F 57% 29.98 in 10.0 mi WSW 16.1 mph 38.0 mph N/A   Clear
12:55 AM 44.6 °F 40.2 °F 30.2 °F 57% 30.00 in 10.0 mi West 8.1 mph 17.3 mph N/A   Clear
1:15 AM 42.8 °F 36.6 °F 32.0 °F 66% 30.00 in 10.0 mi West 11.5 mph 21.9 mph N/A   Clear
1:35 AM 42.8 °F 36.2 °F 30.2 °F 61% 30.00 in 10.0 mi SW 12.7 mph 26.5 mph N/A   Clear
1:55 AM 41.0 °F 34.3 °F 30.2 °F 65% 30.01 in 10.0 mi WSW 11.5 mph 20.7 mph N/A   Clear
2:15 AM 41.0 °F 33.5 °F 30.2 °F 65% 30.01 in 10.0 mi SW 13.8 mph 19.6 mph N/A   Clear
2:35 AM 41.0 °F 35.2 °F 28.4 °F 61% 30.02 in 10.0 mi SW 9.2 mph 18.4 mph N/A   Clear
2:55 AM 41.0 °F 34.3 °F 28.4 °F 61% 30.02 in 10.0 mi SW 11.5 mph 19.6 mph N/A   Clear
3:15 AM 41.0 °F 33.5 °F 30.2 °F 65% 30.03 in 10.0 mi SW 13.8 mph 23.0 mph N/A   Clear
3:35 AM 41.0 °F 32.5 °F 30.2 °F 65% 30.05 in 10.0 mi SW 17.3 mph 23.0 mph N/A   Clear
3:55 AM 41.0 °F 32.2 °F 28.4 °F 61% 30.05 in 10.0 mi SW 18.4 mph 24.2 mph N/A   Clear
4:15 AM 41.0 °F 33.5 °F 28.4 °F 61% 30.05 in 10.0 mi WSW 13.8 mph 25.3 mph N/A   Clear
4:35 AM 41.0 °F 32.8 °F 28.4 °F 61% 30.04 in 10.0 mi West 16.1 mph 28.8 mph N/A   Clear
4:55 AM 41.0 °F 33.9 °F 28.4 °F 61% 30.04 in 10.0 mi WSW 12.7 mph 23.0 mph N/A   Clear
5:15 AM 41.0 °F 32.5 °F 28.4 °F 61% 30.04 in 10.0 mi SW 17.3 mph 23.0 mph N/A   Clear
5:35 AM 41.0 °F 33.9 °F 28.4 °F 61% 30.04 in 10.0 mi WSW 12.7 mph 21.9 mph N/A   Clear
5:55 AM 41.0 °F 32.5 °F 28.4 °F 61% 30.05 in 10.0 mi WSW 17.3 mph 23.0 mph N/A   Clear
6:15 AM 41.0 °F 35.8 °F 28.4 °F 61% 30.07 in 10.0 mi NNW 8.1 mph 20.7 mph N/A   Clear
6:35 AM 41.0 °F 35.2 °F 26.6 °F 57% 30.06 in 10.0 mi SW 9.2 mph - N/A   Clear
6:55 AM 39.2 °F 35.0 °F 26.6 °F 61% 30.07 in 10.0 mi SW 5.8 mph - N/A   Clear
7:15 AM 39.2 °F - 28.4 °F 65% 30.07 in 10.0 mi Calm Calm - N/A   Clear
7:35 AM 37.4 °F - 26.6 °F 65% 30.06 in 10.0 mi Calm Calm - N/A   Clear
7:55 AM 37.4 °F - 26.6 °F 65% 30.07 in 10.0 mi Calm Calm - N/A   Partly Cloudy
8:15 AM 39.2 °F - 28.4 °F 65% 30.08 in 10.0 mi Calm Calm - N/A   Partly Cloudy
8:35 AM 39.2 °F - 28.4 °F 65% 30.08 in 10.0 mi Calm Calm - N/A   Clear
8:55 AM 39.2 °F - 28.4 °F 65% 30.10 in 10.0 mi Calm Calm - N/A   Clear
9:15 AM 41.0 °F - 30.2 °F 65% 30.10 in 10.0 mi Calm Calm - N/A   Clear
9:35 AM 41.0 °F - 30.2 °F 65% 30.11 in 10.0 mi Calm Calm - N/A   Partly Cloudy
9:55 AM 44.6 °F 43.1 °F 30.2 °F 57% 30.12 in 10.0 mi SW 3.5 mph - N/A   Mostly Cloudy
10:15 AM 44.6 °F 40.7 °F 32.0 °F 61% 30.12 in 10.0 mi SSW 6.9 mph - N/A   Mostly Cloudy
10:35 AM 44.6 °F 38.4 °F 32.0 °F 61% 30.12 in 10.0 mi SW 12.7 mph 24.2 mph N/A   Mostly Cloudy
10:55 AM 44.6 °F 38.1 °F 32.0 °F 61% 30.11 in 10.0 mi SW 13.8 mph 20.7 mph N/A   Scattered Clouds
11:15 AM 44.6 °F 38.8 °F 32.0 °F 61% 30.13 in 10.0 mi SW 11.5 mph - N/A   Mostly Cloudy
11:35 AM 44.6 °F 38.1 °F 32.0 °F 61% 30.12 in 10.0 mi WSW 13.8 mph 23.0 mph N/A   Overcast
11:55 AM 44.6 °F 38.1 °F 32.0 °F 61% 30.11 in 10.0 mi SW 13.8 mph 19.6 mph N/A   Mostly Cloudy
12:15 PM 44.6 °F 38.1 °F 32.0 °F 61% 30.11 in 10.0 mi SW 13.8 mph 20.7 mph N/A   Mostly Cloudy
12:35 PM 44.6 °F 37.8 °F 32.0 °F 61% 30.12 in 10.0 mi SW 15.0 mph 21.9 mph N/A   Mostly Cloudy
12:55 PM 46.4 °F 40.1 °F 32.0 °F 57% 30.11 in 10.0 mi WSW 15.0 mph 20.7 mph N/A   Partly Cloudy
1:15 PM 44.6 °F 38.8 °F 30.2 °F 57% 30.10 in 10.0 mi SW 11.5 mph 23.0 mph N/A   Partly Cloudy
1:35 PM 46.4 °F 39.0 °F 32.0 °F 57% 30.09 in 10.0 mi SW 19.6 mph 23.0 mph N/A   Partly Cloudy
1:55 PM 46.4 °F 38.7 °F 30.2 °F 53% 30.10 in 10.0 mi SW 20.7 mph 25.3 mph N/A   Partly Cloudy
2:15 PM 44.6 °F 36.4 °F 26.6 °F 49% 30.10 in 10.0 mi SW 20.7 mph 27.6 mph N/A   Partly Cloudy
2:35 PM 42.8 °F 34.5 °F 26.6 °F 53% 30.10 in 10.0 mi SW 18.4 mph 33.4 mph N/A   Clear
2:55 PM 42.8 °F 35.1 °F 26.6 °F 53% 30.10 in 10.0 mi SW 16.1 mph 23.0 mph N/A   Partly Cloudy
3:15 PM 42.8 °F 34.8 °F 26.6 °F 53% 30.09 in 10.0 mi SW 17.3 mph 25.3 mph N/A   Mostly Cloudy
3:35 PM 42.8 °F 33.5 °F 24.8 °F 49% 30.07 in 10.0 mi SW 23.0 mph 29.9 mph N/A   Scattered Clouds
3:55 PM 42.8 °F 34.3 °F 24.8 °F 49% 30.07 in 10.0 mi SW 19.6 mph 32.2 mph N/A   Mostly Cloudy
4:15 PM 42.8 °F 34.3 °F 26.6 °F 53% 30.06 in 10.0 mi SW 19.6 mph 29.9 mph N/A   Mostly Cloudy
4:35 PM 42.8 °F 34.3 °F 24.8 °F 49% 30.06 in 10.0 mi SSW 19.6 mph 25.3 mph N/A   Mostly Cloudy
4:55 PM 42.8 °F 35.4 °F 24.8 °F 49% 30.06 in 10.0 mi SSW 15.0 mph 24.2 mph N/A   Scattered Clouds
5:15 PM 42.8 °F 35.1 °F 24.8 °F 49% 30.05 in 10.0 mi SSW 16.1 mph 23.0 mph N/A   Scattered Clouds
5:35 PM 42.8 °F 34.3 °F 23.0 °F 46% 30.05 in 10.0 mi SSW 19.6 mph 24.2 mph N/A   Partly Cloudy
5:55 PM 42.8 °F 34.3 °F 21.2 °F 42% 30.04 in 10.0 mi SSW 19.6 mph 25.3 mph N/A   Clear
6:15 PM 44.6 °F 38.8 °F 23.0 °F 43% 30.04 in 10.0 mi South 11.5 mph 19.6 mph N/A   Partly Cloudy
6:35 PM 44.6 °F 37.8 °F 24.8 °F 46% 30.04 in 10.0 mi SSW 15.0 mph 18.4 mph N/A   Partly Cloudy
6:55 PM 44.6 °F 37.2 °F 26.6 °F 49% 30.03 in 10.0 mi SSW 17.3 mph 21.9 mph N/A   Scattered Clouds
7:15 PM 44.6 °F 36.9 °F 26.6 °F 49% 30.03 in 10.0 mi SSW 18.4 mph 28.8 mph N/A   Scattered Clouds
7:35 PM 44.6 °F 38.4 °F 26.6 °F 49% 30.04 in 10.0 mi SW 12.7 mph - N/A   Scattered Clouds
7:55 PM 46.4 °F 41.1 °F 26.6 °F 46% 30.04 in 10.0 mi SW 11.5 mph 18.4 mph N/A   Mostly Cloudy
8:15 PM 46.4 °F 39.8 °F 28.4 °F 50% 30.02 in 10.0 mi SSW 16.1 mph 24.2 mph N/A   Mostly Cloudy
8:35 PM 46.4 °F 40.4 °F 28.4 °F 50% 30.01 in 10.0 mi SSW 13.8 mph - N/A   Partly Cloudy
8:55 PM 46.4 °F 39.5 °F 30.2 °F 53% 30.00 in 10.0 mi SSW 17.3 mph 23.0 mph N/A   Scattered Clouds
9:15 PM 46.4 °F 39.8 °F 30.2 °F 53% 30.00 in 10.0 mi SSW 16.1 mph 23.0 mph N/A   Scattered Clouds
9:35 PM 46.4 °F 40.4 °F 30.2 °F 53% 30.00 in 10.0 mi SSW 13.8 mph 17.3 mph N/A   Partly Cloudy
9:55 PM 46.4 °F 42.9 °F 32.0 °F 57% 29.99 in 10.0 mi South 6.9 mph 16.1 mph N/A   Partly Cloudy
10:15 PM 46.4 °F 41.5 °F 32.0 °F 57% 29.98 in 10.0 mi SSW 10.4 mph 18.4 mph N/A   Partly Cloudy
10:35 PM 46.4 °F 40.7 °F 32.0 °F 57% 29.97 in 10.0 mi South 12.7 mph - N/A   Clear
10:55 PM 46.4 °F 41.5 °F 32.0 °F 57% 29.97 in 10.0 mi South 10.4 mph 16.1 mph N/A   Clear
11:15 PM 46.4 °F 42.4 °F 32.0 °F 57% 29.96 in 10.0 mi South 8.1 mph - N/A   Clear
11:35 PM 46.4 °F 43.5 °F 33.8 °F 62% 29.94 in 10.0 mi South 5.8 mph - N/A   Clear
11:55 PM 46.4 °F 41.9 °F 33.8 °F 62% 29.93 in 10.0 mi SSW 9.2 mph - N/A   Clear